Voltar ao catálogo

STARLINK-36837

AtivoComunicaçõesVLEO
NORAD 67858·PAYLOAD·🇺🇸 United States

Lançado Feb 20, 2026 de Vandenberg Space Force Base

Loading…

Próximas Passagens (próximas 24 horas)

TLE

AtualizadoSource: CelesTrak SupGP

Época: Sep 15, 2026, 02:57 UTC

1 67858C 26034J   26258.12340278 -.00004271  00000+0 -12610-3 0  2585
2 67858  53.1596  39.1685 0000994  89.2189 211.3924 15.34410495    15

Acompanhe STARLINK-36837 em tempo real com AllMySat

Download on the App Store